YZ-1 R/B, 43625

Orbit data source: Space-Track

YZ-1 R/B, 43625 is space debris originally from a launch on Wed, 19 Sep 2018 UTC launched from the Xichang Space Center, China (XSC). Debris objects in space refer to the collection of defunct objects orbiting the Earth. Examples of debris include non-operational satellites, rocket bodies, and fragments generated from explosions, collisions, or faulty payload assembly.

Loading next visibility...
Identifier
43625, 2018-072D
Orbit
Active
Last TLE update
1 day ago
Origin
Manufacturer
CALT
Mission
Spacecraft
Bus & Motor
YZ-1, Unknown motor
Mass
~5,815 kg wet, ~5,815 kg dry
Launch date (UTC)
2018-09-19 (7 years ago)
Launch vehicle
Unknown
Launch site
Xichang Space Center, China (XSC)
Object type
Payload
Rocket body
Debris
Shape & HBR
Double Cone, 4 m
Radar Cross Section
5.890 m², Large (>1 m²)

Expand to show TLE details & history

TLE from 1 day ago
0 YZ-1 R/B
1 43625U 18072D   25114.40222810  .00000028  00000-0  00000-0 0  9990
2 43625  56.0598  84.2511 0103453  58.3146 302.6685  1.77481760 42758
Epoch: 2025-04-24T09:39Z
Definitive object data (Epoch: 2025-04-24T09:39:12.507Z)
Latitude
0.00003°
Longitude
86.75203°
Altitude
22,279.539 km
Speed
3.74 km/s
True Right ascension
05h 36m 54s
True Declination
0° 00' 00"
Sunlit
Object was in daylight at TLE epoch
Visualization TLE readout
Latitude
-13.83662°
Longitude
-83.76085°
Altitude
22,662.081 km
Speed
3.691 km/s
Apparent Right ascension
17h 50m 08s
Apparent Declination
-19° 02' 48"
Sunlit
Object is in daylight
Visualization observer readout
Local Sidereal Time
03:16:56
Azimuth
291.071° WNW
Elevation
-51.112°
Doppler factor
1
Orbital elements
Apogee altitude
22,735.874 km
Perigee altitude
22,139.655 km
Semi-major axis
28,815.901 km
Eccentricity
0.0103453
Inclination
56.0598°
RAAN
84.2511°
Arg. of periapsis
58.3146°
True anomaly
301.66359°
Mean anomaly
302.6685°
Eccentric anomaly
302.16674°
Mean motion
0.44371 °/min
BSTAR
Unknown
Orbital period
811.35 mins
Loading maneuver chart data...
Loading SW <> Apogee altitude chart data...
Loading historical data...
Loading historical data...
Loading historical data...
Loading historical data...
Loading historical data...
Loading historical data...
Loading historical data...
Other satellites on launch #72 in the year 2018 (2018-09-19 UTC)

YZ-1 R/B Visibility forecast

Observer location: undefined°, undefined°

Span
Click to sort rows by Start time (UTC) header in descending order
Start Az.
Max El. time (UTC)
Max El. Az.
Max El.
End time (UTC)
End Az.
472 mins2025-04-26 02:10:04.593Z247.541° W2025-04-26 06:38:04.593Z47.906° ENE44.272°2025-04-26 10:02:04.593Z158.498° S
|